Toussaint Louverture International Airport
MTPP : now visible

Airfield :











YOU CAN JOIN US ON...

 
LOGIN :

Register | Disclaimer

   EN    FR    IT 

 









Legend :    VFR   Marginal VFR   IFR   Intensive IFR   Very Intensive IFR
Visi :
Ceiling :
>= 8 km
>= 3000ft
5 to 8 km
1000 to 3000 ft
1500m to 5 km
500 to 1000 ft
800 to 1500m
200 to 500 ft
< 800m
< 200 ft
Symbols :   Thunderstorms  Fog  Heavy snow  Heavy precipitations  Wind > 20 kt






- Airport Elevation : 122 ft
- IATA code : PAP


MTPP - Toussaint Louverture International

CURRENT METAR :
  • 301700Z 10006KT 9999 FEW028 32/18 Q1015 A2999

EXPIRED METARs :
  • 301600Z 11010KT 9999 FEW027 31/18 Q1016 A3002
  • 301400Z 11015KT 9999 FEW025 30/17 Q1017 A3005

TAF TAF MTPP
Valid from the 29 at 18:00 until the 30 at 18:00 UTC


291600Z 2918/3018 12016KT 9999 FEW020
PROB30
TEMPO 3004/3008 4500 SHRA SCT026CB BKN040
BECMG 3009/3012 VRB02KT 9000 NSW FEW020



MET'MAP, your aeronautical weather chart ! - Copyright ORBIFLY December 2007 - Disclaimer

ORBIFLY MET'MAP TEAM :

Programming & Development : Alexandra Zaïnal
Concept & original design : Baudouin d'Aumeries
Assistance for programming : Marc-Olivier Méhu
Technical & hardware support : Manuel Goepfert

Contact : metmap@orbifly.com




SOURCES & CREDITS :

   NOAA       Earth
Advisory